timestamp,wind_dir_avg,wind_spd_avg,wind_spd_max_dir,wind_spd_gust,battery_voltage,lat,long
2021-03-12 00:04:01+00:00,234.0,7.37,231.0,8.97,12.49,47.59359,-54.27349
2021-03-12 00:14:01+00:00,233.0,6.5,236.0,7.63,12.41,47.59359,-54.27349
2021-03-12 00:24:01+00:00,239.0,5.61,232.0,7.02,12.41,47.59359,-54.27349
2021-03-12 00:34:01+00:00,237.0,5.14,238.0,5.88,12.41,47.59359,-54.27349
2021-03-12 00:44:01+00:00,232.0,4.87,233.0,5.59,12.41,47.59359,-54.27349
2021-03-12 00:54:01+00:00,231.0,4.75,237.0,6.18,12.41,47.59359,-54.27349
2021-03-12 01:04:01+00:00,236.0,4.27,232.0,4.89,12.41,47.59359,-54.27349
2021-03-12 01:14:01+00:00,229.0,5.57,229.0,6.05,12.41,47.59359,-54.27349
2021-03-12 01:24:01+00:00,225.0,5.93,229.0,6.61,12.41,47.59359,-54.27349
2021-03-12 01:34:01+00:00,233.0,4.26,239.0,5.11,12.41,47.59359,-54.27349
2021-03-12 01:44:01+00:00,216.0,3.82,216.0,4.53,12.41,47.59359,-54.27349
2021-03-12 01:54:01+00:00,217.0,3.7,221.0,4.2,12.41,47.59359,-54.27349
2021-03-12 02:04:01+00:00,240.0,5.5,247.0,6.06,12.41,47.59359,-54.27349
2021-03-12 02:14:01+00:00,243.0,4.68,240.0,5.13,12.41,47.59359,-54.27349
2021-03-12 02:24:01+00:00,236.0,4.26,234.0,5.05,12.41,47.59359,-54.27349
2021-03-12 02:34:01+00:00,232.0,5.23,230.0,5.89,12.41,47.59359,-54.27349
2021-03-12 02:44:01+00:00,229.0,5.4,228.0,6.01,12.41,47.59359,-54.27349
2021-03-12 02:54:01+00:00,226.0,5.66,225.0,6.3,12.41,47.59359,-54.27349
2021-03-12 03:04:01+00:00,210.0,4.28,216.0,4.95,12.41,47.59359,-54.27349
2021-03-12 03:14:01+00:00,214.0,5.9,215.0,6.69,12.41,47.59359,-54.27349
2021-03-12 03:24:01+00:00,213.0,6.04,211.0,6.67,12.41,47.59359,-54.27349
2021-03-12 03:34:01+00:00,211.0,7.21,212.0,7.74,12.41,47.59359,-54.27349
2021-03-12 03:44:01+00:00,214.0,7.26,211.0,8.05,12.41,47.59359,-54.27349
2021-03-12 03:54:01+00:00,210.0,7.2,212.0,7.99,12.41,47.59359,-54.27349
2021-03-12 04:04:01+00:00,211.0,7.39,211.0,8.26,12.41,47.59359,-54.27349
2021-03-12 04:14:01+00:00,206.0,7.03,206.0,7.93,12.41,47.59359,-54.27349
2021-03-12 04:24:01+00:00,214.0,6.72,212.0,7.85,12.41,47.59359,-54.27349
2021-03-12 04:34:01+00:00,205.0,7.74,210.0,8.75,12.41,47.59359,-54.27349
2021-03-12 04:44:01+00:00,209.0,8.09,209.0,8.97,12.41,47.59359,-54.27349
2021-03-12 04:54:01+00:00,215.0,7.94,215.0,8.91,12.41,47.59359,-54.27349
2021-03-12 05:04:01+00:00,212.0,9.11,213.0,10.24,12.41,47.59359,-54.27349
2021-03-12 05:14:01+00:00,213.0,8.82,212.0,9.91,12.41,47.59359,-54.27349
2021-03-12 05:24:01+00:00,214.0,7.2,217.0,8.15,12.41,47.59359,-54.27349
2021-03-12 05:34:01+00:00,216.0,8.05,215.0,8.89,12.41,47.59359,-54.27349
2021-03-12 05:44:01+00:00,215.0,8.26,216.0,9.83,12.41,47.59359,-54.27349
2021-03-12 05:54:01+00:00,217.0,9.64,215.0,10.88,12.41,47.59359,-54.27349
2021-03-12 06:04:01+00:00,212.0,9.5,211.0,10.96,12.41,47.59359,-54.27349
2021-03-12 06:14:01+00:00,204.0,9.1,203.0,10.84,12.33,47.59359,-54.27349
2021-03-12 06:24:01+00:00,207.0,8.9,207.0,9.96,12.33,47.59359,-54.27349
2021-03-12 06:34:01+00:00,207.0,9.72,204.0,10.75,12.33,47.59359,-54.27349
2021-03-12 06:44:01+00:00,212.0,9.02,215.0,10.1,12.33,47.59359,-54.27349
2021-03-12 06:54:01+00:00,215.0,9.33,218.0,10.7,12.33,47.59359,-54.27349
2021-03-12 07:04:01+00:00,223.0,8.86,228.0,10.11,12.33,47.59359,-54.27349
2021-03-12 07:14:01+00:00,225.0,8.78,221.0,11.51,12.33,47.59359,-54.27349
2021-03-12 07:24:01+00:00,221.0,10.23,218.0,11.16,12.33,47.59359,-54.27349
2021-03-12 07:34:01+00:00,221.0,9.38,230.0,10.34,12.33,47.59359,-54.27349
2021-03-12 07:44:01+00:00,214.0,10.19,213.0,10.83,12.33,47.59359,-54.27349
2021-03-12 07:54:01+00:00,215.0,9.87,214.0,10.66,12.33,47.59359,-54.27349
2021-03-12 08:04:01+00:00,213.0,8.94,215.0,10.03,12.33,47.59359,-54.27349
2021-03-12 08:14:01+00:00,213.0,8.8,214.0,9.72,12.25,47.59359,-54.27349
2021-03-12 08:24:01+00:00,208.0,8.12,208.0,9.18,12.25,47.59359,-54.27349
2021-03-12 08:34:01+00:00,222.0,8.5,223.0,9.49,12.25,47.59359,-54.27349
2021-03-12 08:44:01+00:00,216.0,7.6,222.0,9.04,12.25,47.59359,-54.27349
2021-03-12 08:54:01+00:00,214.0,9.09,216.0,12.27,12.25,47.59359,-54.27349
2021-03-12 09:04:01+00:00,212.0,9.99,216.0,11.28,12.25,47.59359,-54.27349
2021-03-12 09:14:01+00:00,213.0,8.39,214.0,9.51,12.25,47.59359,-54.27349
2021-03-12 09:24:01+00:00,216.0,8.65,215.0,9.89,12.25,47.59359,-54.27349
2021-03-12 09:34:01+00:00,226.0,10.34,226.0,11.65,12.25,47.59359,-54.27349
2021-03-12 09:44:01+00:00,220.0,9.99,225.0,12.74,12.25,47.59359,-54.27349
2021-03-12 09:54:01+00:00,219.0,10.23,220.0,11.61,12.25,47.59359,-54.27349
2021-03-12 10:04:01+00:00,223.0,10.74,226.0,11.93,12.25,47.59359,-54.27349
2021-03-12 10:14:01+00:00,220.0,10.24,217.0,11.67,12.25,47.59359,-54.27349
2021-03-12 10:24:01+00:00,216.0,10.17,217.0,11.93,12.25,47.59359,-54.27349
2021-03-12 10:34:01+00:00,217.0,10.44,216.0,11.95,12.25,47.59359,-54.27349
2021-03-12 10:44:01+00:00,220.0,10.51,216.0,11.88,12.25,47.59359,-54.27349
2021-03-12 10:54:01+00:00,218.0,10.42,215.0,11.82,12.25,47.59359,-54.27349
2021-03-12 11:04:01+00:00,221.0,10.93,217.0,12.75,12.25,47.59359,-54.27349
2021-03-12 11:14:01+00:00,217.0,11.73,215.0,12.97,12.33,47.59359,-54.27349
2021-03-12 11:24:01+00:00,213.0,10.71,211.0,12.55,12.33,47.59359,-54.27349
2021-03-12 11:34:01+00:00,219.0,11.26,218.0,12.55,12.33,47.59359,-54.27349
2021-03-12 11:44:01+00:00,218.0,9.2,212.0,10.87,12.33,47.59359,-54.27349
2021-03-12 11:54:01+00:00,218.0,10.56,209.0,13.85,12.33,47.59359,-54.27349
2021-03-12 12:04:01+00:00,214.0,10.9,216.0,12.7,12.33,47.59359,-54.27349
2021-03-12 12:14:01+00:00,219.0,10.65,225.0,11.78,12.65,47.59359,-54.27349
2021-03-12 12:24:01+00:00,218.0,12.01,219.0,13.37,12.65,47.59359,-54.27349
2021-03-12 12:34:01+00:00,216.0,11.35,214.0,13.13,12.65,47.59359,-54.27349
2021-03-12 12:44:01+00:00,218.0,10.86,219.0,13.47,12.65,47.59359,-54.27349
2021-03-12 12:54:01+00:00,217.0,12.0,224.0,13.83,12.65,47.59359,-54.27349
2021-03-12 13:04:01+00:00,215.0,11.96,213.0,13.13,12.65,47.59359,-54.27349
2021-03-12 13:14:01+00:00,216.0,10.03,216.0,11.64,13.37,47.59359,-54.27349
2021-03-12 13:24:01+00:00,213.0,11.9,215.0,14.07,13.37,47.59359,-54.27349
2021-03-12 13:34:01+00:00,212.0,12.37,211.0,14.31,13.37,47.59359,-54.27349
2021-03-12 13:44:01+00:00,216.0,11.31,220.0,13.52,13.37,47.59359,-54.27349
2021-03-12 13:54:01+00:00,214.0,10.11,219.0,11.42,13.37,47.59359,-54.27349
2021-03-12 14:04:01+00:00,215.0,9.37,218.0,11.2,13.37,47.59359,-54.27349
2021-03-12 14:14:01+00:00,215.0,12.34,210.0,14.71,13.68,47.59359,-54.27349
2021-03-12 14:24:01+00:00,209.0,11.92,202.0,13.88,13.68,47.59359,-54.27349
2021-03-12 14:34:01+00:00,205.0,11.17,208.0,12.72,13.68,47.59359,-54.27349
2021-03-12 14:44:01+00:00,205.0,11.88,204.0,12.96,13.68,47.59359,-54.27349
2021-03-12 14:54:01+00:00,209.0,11.44,211.0,13.16,13.68,47.59359,-54.27349
2021-03-12 15:04:01+00:00,214.0,12.39,214.0,14.16,13.68,47.59359,-54.27349
2021-03-12 15:14:01+00:00,212.0,13.28,214.0,16.48,13.84,47.59359,-54.27349
2021-03-12 15:24:01+00:00,218.0,11.31,217.0,13.24,13.84,47.59359,-54.27349
2021-03-12 15:34:01+00:00,218.0,13.64,219.0,16.37,13.84,47.59359,-54.27349
2021-03-12 15:44:01+00:00,222.0,12.45,225.0,14.36,13.84,47.59359,-54.27349
2021-03-12 15:54:01+00:00,214.0,12.65,216.0,14.01,13.84,47.59359,-54.27349
2021-03-12 16:04:01+00:00,210.0,11.63,211.0,12.84,13.84,47.59359,-54.27349
2021-03-12 16:14:01+00:00,214.0,12.22,206.0,14.62,13.84,47.59359,-54.27349
2021-03-12 16:24:01+00:00,213.0,12.21,209.0,14.36,13.84,47.59359,-54.27349
2021-03-12 16:34:01+00:00,211.0,11.44,212.0,12.53,13.84,47.59359,-54.27349
2021-03-12 16:44:01+00:00,213.0,13.4,209.0,15.23,13.84,47.59359,-54.27349
2021-03-12 16:54:01+00:00,216.0,12.83,216.0,13.86,13.84,47.59359,-54.27349
2021-03-12 17:04:01+00:00,212.0,11.1,215.0,12.76,13.84,47.59359,-54.27349
2021-03-12 17:14:01+00:00,210.0,9.56,213.0,11.37,13.37,47.59359,-54.27349
2021-03-12 17:24:01+00:00,214.0,11.24,215.0,12.93,13.37,47.59359,-54.27349
2021-03-12 17:34:01+00:00,208.0,10.08,214.0,13.01,13.37,47.59359,-54.27349
2021-03-12 17:44:01+00:00,206.0,9.32,216.0,11.7,13.37,47.59359,-54.27349
2021-03-12 17:54:01+00:00,210.0,10.68,216.0,13.08,13.37,47.59359,-54.27349
2021-03-12 18:04:01+00:00,205.0,7.96,220.0,10.51,13.37,47.59359,-54.27349
2021-03-12 18:14:01+00:00,208.0,10.18,219.0,12.91,13.05,47.59359,-54.27349
2021-03-12 18:24:01+00:00,203.0,9.84,213.0,13.31,13.05,47.59359,-54.27349
2021-03-12 18:34:01+00:00,208.0,9.63,218.0,13.0,13.05,47.59359,-54.27349
2021-03-12 18:44:01+00:00,215.0,11.6,214.0,14.11,13.05,47.59359,-54.27349
2021-03-12 18:54:01+00:00,213.0,9.2,222.0,11.92,13.05,47.59359,-54.27349
2021-03-12 19:04:01+00:00,219.0,8.75,227.0,11.48,13.05,47.59359,-54.27349
2021-03-12 19:14:01+00:00,214.0,8.38,224.0,10.34,12.73,47.59359,-54.27349
2021-03-12 19:24:01+00:00,207.0,10.29,216.0,12.17,12.73,47.59359,-54.27349
2021-03-12 19:34:01+00:00,210.0,10.21,221.0,12.82,12.73,47.59359,-54.27349
2021-03-12 19:44:01+00:00,211.0,11.24,213.0,13.36,12.73,47.59359,-54.27349
2021-03-12 19:54:01+00:00,204.0,10.79,217.0,13.67,12.73,47.59359,-54.27349
2021-03-12 20:04:01+00:00,207.0,10.14,216.0,11.63,12.73,47.59359,-54.27349
2021-03-12 20:14:01+00:00,210.0,12.38,208.0,15.07,12.57,47.59359,-54.27349
2021-03-12 20:24:01+00:00,210.0,12.45,218.0,14.16,12.57,47.59359,-54.27349
2021-03-12 20:34:01+00:00,209.0,8.61,214.0,11.08,12.57,47.59359,-54.27349
2021-03-12 20:44:01+00:00,211.0,9.08,222.0,11.67,12.57,47.59359,-54.27349
2021-03-12 20:54:01+00:00,228.0,12.15,224.0,14.81,12.57,47.59359,-54.27349
2021-03-12 21:04:01+00:00,225.0,10.53,231.0,12.76,12.57,47.59359,-54.27349
2021-03-12 21:14:01+00:00,225.0,11.76,225.0,13.58,12.49,47.59359,-54.27349
2021-03-12 21:24:01+00:00,224.0,10.58,223.0,12.77,12.49,47.59359,-54.27349
2021-03-12 21:34:01+00:00,228.0,10.52,227.0,12.4,12.49,47.59359,-54.27349
2021-03-12 21:44:01+00:00,235.0,8.3,235.0,9.51,12.49,47.59359,-54.27349
2021-03-12 21:54:01+00:00,228.0,8.04,235.0,9.89,12.49,47.59359,-54.27349
2021-03-12 22:04:01+00:00,235.0,9.18,235.0,10.43,12.49,47.59359,-54.27349
2021-03-12 22:14:01+00:00,210.0,4.9,236.0,7.44,12.49,47.59359,-54.27349
2021-03-12 22:24:01+00:00,214.0,6.52,229.0,9.63,12.49,47.59359,-54.27349
2021-03-12 22:34:01+00:00,225.0,7.56,235.0,10.2,12.49,47.59359,-54.27349
2021-03-12 22:44:01+00:00,218.0,5.35,237.0,9.3,12.49,47.59359,-54.27349
2021-03-12 22:54:01+00:00,237.0,7.65,238.0,8.69,12.49,47.59359,-54.27349
2021-03-12 23:04:01+00:00,232.0,6.78,236.0,8.61,12.49,47.59359,-54.27349
2021-03-12 23:14:01+00:00,240.0,8.87,240.0,9.74,12.41,47.59359,-54.27349
2021-03-12 23:24:01+00:00,236.0,9.76,235.0,10.85,12.41,47.59359,-54.27349
2021-03-12 23:34:01+00:00,231.0,8.42,234.0,9.91,12.41,47.59359,-54.27349
2021-03-12 23:44:01+00:00,229.0,8.57,232.0,10.33,12.41,47.59359,-54.27349
2021-03-12 23:54:01+00:00,232.0,9.28,234.0,10.74,12.41,47.59359,-54.27349
